TimeEDT,TemperatureF,Dew PointF,Humidity,Sea Level PressureIn,VisibilityMPH,Wind Direction,Wind SpeedMPH,Gust SpeedMPH,PrecipitationIn,Events,Conditions,WindDirDegrees,DateUTC
12:00 AM,53.6,53.6,100,29.83,1.2,NE,9.2,-,N/A,,Overcast,40,2013-05-06 04:00:00
12:32 AM,55.4,53.6,94,29.82,0.8,ENE,5.8,-,N/A,,Mist,70,2013-05-06 04:32:00
12:53 AM,55.0,54.0,96,29.82,0.5,ESE,4.6,-,N/A,Fog,Fog,120,2013-05-06 04:53:00
1:21 AM,55.4,53.6,94,29.82,0.2,East,5.8,-,N/A,Fog,Fog,90,2013-05-06 05:21:00
1:53 AM,55.9,55.0,97,29.82,0.2,ESE,5.8,-,N/A,Fog,Fog,120,2013-05-06 05:53:00
2:14 AM,57.2,55.4,94,29.82,0.8,SSE,8.1,-,0.00,Rain,Light Rain,150,2013-05-06 06:14:00
2:22 AM,57.2,55.4,94,29.82,1.8,SSE,6.9,-,0.00,,Overcast,150,2013-05-06 06:22:00
2:45 AM,57.2,55.4,94,29.82,2.5,SE,5.8,-,0.00,,Overcast,140,2013-05-06 06:45:00
2:53 AM,57.0,55.9,96,29.81,2.0,SE,6.9,-,0.00,,Overcast,140,2013-05-06 06:53:00
3:06 AM,57.2,55.4,94,29.81,4.0,SE,4.6,-,N/A,,Overcast,130,2013-05-06 07:06:00
3:53 AM,55.9,55.0,97,29.81,8.0,SE,3.5,-,N/A,,Overcast,130,2013-05-06 07:53:00
4:13 AM,55.4,55.4,100,29.82,1.8,South,4.6,-,N/A,,Overcast,180,2013-05-06 08:13:00
4:22 AM,55.4,55.4,100,29.82,3.0,South,6.9,-,N/A,,Overcast,180,2013-05-06 08:22:00
4:53 AM,55.9,55.0,97,29.81,6.0,Calm,Calm,-,N/A,,Overcast,0,2013-05-06 08:53:00
5:14 AM,55.4,53.6,94,29.82,10.0,Calm,Calm,-,N/A,,Overcast,0,2013-05-06 09:14:00
5:26 AM,55.4,53.6,94,29.82,10.0,SE,3.5,-,N/A,,Overcast,140,2013-05-06 09:26:00
5:36 AM,55.4,53.6,94,29.82,10.0,South,4.6,-,N/A,,Mostly Cloudy,180,2013-05-06 09:36:00
5:53 AM,55.0,54.0,96,29.82,9.0,South,3.5,-,N/A,,Overcast,190,2013-05-06 09:53:00
6:53 AM,54.0,53.1,97,29.84,10.0,SSW,4.6,-,N/A,,Overcast,200,2013-05-06 10:53:00
7:35 AM,53.6,51.8,94,29.86,10.0,SSW,5.8,-,N/A,,Overcast,200,2013-05-06 11:35:00
7:51 AM,53.6,50.0,88,29.87,10.0,SW,10.4,-,N/A,,Overcast,230,2013-05-06 11:51:00
7:53 AM,52.0,50.0,93,29.86,10.0,SW,8.1,-,N/A,,Overcast,230,2013-05-06 11:53:00
8:09 AM,51.8,48.2,88,29.87,10.0,WSW,9.2,-,N/A,,Overcast,240,2013-05-06 12:09:00
8:33 AM,51.8,48.2,88,29.87,10.0,WSW,8.1,-,N/A,,Mostly Cloudy,250,2013-05-06 12:33:00
8:51 AM,51.8,48.2,88,29.88,10.0,WSW,6.9,-,N/A,,Scattered Clouds,240,2013-05-06 12:51:00
8:53 AM,52.0,48.0,86,29.88,10.0,WSW,5.8,-,N/A,,Scattered Clouds,240,2013-05-06 12:53:00
9:53 AM,54.0,46.9,77,29.89,10.0,SW,5.8,-,N/A,,Scattered Clouds,230,2013-05-06 13:53:00
10:08 AM,55.4,48.2,77,29.90,10.0,WSW,9.2,-,N/A,,Mostly Cloudy,240,2013-05-06 14:08:00
10:53 AM,57.0,45.0,64,29.91,10.0,SW,5.8,-,N/A,,Mostly Cloudy,220,2013-05-06 14:53:00
11:00 AM,59.0,46.4,63,29.91,10.0,Variable,6.9,-,N/A,,Scattered Clouds,0,2013-05-06 15:00:00
11:50 AM,59.0,44.6,59,29.91,10.0,West,8.1,-,N/A,,Mostly Cloudy,260,2013-05-06 15:50:00
11:53 AM,57.9,44.1,60,29.91,10.0,WSW,8.1,-,N/A,,Mostly Cloudy,240,2013-05-06 15:53:00
12:53 PM,62.1,45.0,53,29.90,10.0,SSW,8.1,-,N/A,,Mostly Cloudy,200,2013-05-06 16:53:00
1:00 PM,60.8,44.6,55,29.90,10.0,SW,8.1,-,N/A,,Partly Cloudy,230,2013-05-06 17:00:00
1:53 PM,63.0,46.0,54,29.88,10.0,SW,6.9,-,N/A,,Scattered Clouds,220,2013-05-06 17:53:00
2:53 PM,63.0,45.0,52,29.87,10.0,Variable,6.9,18.4,N/A,,Partly Cloudy,0,2013-05-06 18:53:00
3:53 PM,64.0,45.0,50,29.86,10.0,SW,13.8,-,N/A,,Mostly Cloudy,230,2013-05-06 19:53:00
4:53 PM,62.1,44.1,52,29.86,10.0,SW,9.2,-,N/A,,Scattered Clouds,220,2013-05-06 20:53:00
5:53 PM,62.1,43.0,50,29.87,10.0,WSW,9.2,-,N/A,,Scattered Clouds,240,2013-05-06 21:53:00
6:53 PM,60.1,43.0,53,29.88,10.0,WSW,10.4,-,N/A,,Partly Cloudy,240,2013-05-06 22:53:00
7:53 PM,57.9,45.0,62,29.89,10.0,WSW,9.2,-,N/A,,Clear,250,2013-05-06 23:53:00
8:53 PM,55.9,46.0,69,29.90,10.0,Calm,Calm,-,N/A,,Clear,0,2013-05-07 00:53:00
9:53 PM,54.0,46.0,75,29.91,10.0,West,3.5,-,N/A,,Clear,260,2013-05-07 01:53:00
10:53 PM,53.1,46.0,77,29.92,10.0,West,3.5,-,N/A,,Clear,270,2013-05-07 02:53:00
11:53 PM,50.0,46.0,86,29.92,10.0,WSW,3.5,-,N/A,,Clear,250,2013-05-07 03:53:00